Skip Page Navigation
NASA JPL Caltech
NASA Logo - Jet Propulsion Laboratory + View the NASA Portal
+ Near-Earth Object (NEO) Program
Search JPL
JPL Home Earth Solar System Stars & Galaxies Technology
JPL Solar System Dynamics
BODIES ORBITS EPHEMERIDES TOOLS PHYSICAL DATA DISCOVERY FAQ SITE MAP
JPL Small-Body Database Browser
Search: [ help ]  
35109 (1991 XM)
Classification: Main-belt Asteroid          SPK-ID: 2035109
Ephemeris | Orbit Diagram | Orbital Elements | Physical Parameters | Discovery Circumstances | Close-Approach Data ]

[ show orbit diagram ]
Orbital Elements at Epoch 2457000.5 (2014-Dec-09.0) TDB
Reference: JPL 8 (heliocentric ecliptic J2000)
 Element Value Uncertainty (1-sigma)   Units 
e .1509707680179672 7.7362e-08  
a 2.752803696135352 2.5099e-08 AU
q 2.337210807927099 2.168e-07 AU
i 14.26079951301393 7.6939e-06 deg
node 243.6548624713207 3.1702e-05 deg
peri 82.3301048812924 4.1184e-05 deg
M 97.75986825508195 2.473e-05 deg
tp 2456547.477890719777
(2013-Sep-11.97789072)
0.00011369 JED
period 1668.250604791526
4.57
2.2816e-05
6.247e-08
d
yr
n .2157949165227413 2.9513e-09 deg/d
Q 3.168396584343605 2.8888e-08 AU
  Orbit Determination Parameters
   # obs. used (total)      704  
   data-arc span      8426 days (23.07 yr)  
   first obs. used      1991-12-04  
   last obs. used      2014-12-29  
   planetary ephem.      DE431  
   SB-pert. ephem.      SB431-BIG16  
   condition code      0  
   fit RMS      .51991  
   data source      ORB  
   producer      Otto Matic  
   solution date      2015-Jan-08 03:36:03  

Additional Information
 Earth MOID = 1.37772 AU 
 T_jup = 3.284 
[ show covariance matrix ]

Ephemeris | Orbit Diagram | Orbital Elements | Physical Parameters | Discovery Circumstances | Close-Approach Data ]

Physical Parameter Table
Parameter Symbol Value Units Sigma Reference Notes
absolute magnitude H 13.0 mag n/a MPO267826  

35109 (1991 XM)          Discovered 1991-Dec-04 by Ueda, S., Kaneda, H. at Kushiro (399)
Reference: 20020227/Numbers.arcLast Updated: 2004-04-19

[ show close-approach data ]
Alternate Designations
 1991 XM = 1999 LJ14 
Ephemeris | Orbit Diagram | Orbital Elements | Physical Parameters | Discovery Circumstances | Close-Approach Data ]
ABOUT SSD CREDITS/AWARDS PRIVACY/COPYRIGHT GLOSSARY LINKS
FirstGov 2015-Jan-30 23:17 UT
(server date/time)  
NASA Home Page
Site Manager:   Donald K. Yeomans
Webmaster  Alan B. Chamberlin